Location: 22
(39.7117°N, 89.5929°W)
Time: 10:13:50
(UTC-05:00)

Transit 2A - Pass Details

Date: 09 August 2024
Orbit: 590 x 961 km, 66.7° (Epoch: 13 September)

Event Time Altitude Azimuth Distance (km) Brightness Sun altitude
Rises 04:11:35 0° 204° (SSW) 3,178 - -19.5°
Reaches altitude 10° 04:13:51 10° 204° (SSW) 2,313 - -19.2°
Exits shadow 04:16:25 30° 201° (SSW) 1,395 6.9 -18.8°
Maximum altitude 04:19:12 82° 117° (ESE) 848 6.2 -18.4°
Drops below altitude 10° 04:25:11 10° 31° (NNE) 2,573 9.8 -17.5°
Sets 04:27:48 0° 30° (NNE) 3,560 10.8 -17.1°
